TimeEST,TemperatureF,Dew PointF,Humidity,Sea Level PressureIn,VisibilityMPH,Wind Direction,Wind SpeedMPH,Gust SpeedMPH,PrecipitationIn,Events,Conditions,WindDirDegrees,DateUTC
12:15 AM,39.2,37.4,93,30.10,1.8,Calm,Calm,-,N/A,,Clear,0,2012-11-21 05:15:00
12:22 AM,39.2,37.4,93,30.10,4.0,Calm,Calm,-,N/A,,Clear,0,2012-11-21 05:22:00
12:50 AM,37.4,37.4,100,30.10,1.5,Calm,Calm,-,N/A,,Clear,0,2012-11-21 05:50:00
12:53 AM,37.9,37.0,97,30.11,0.8,Calm,Calm,-,N/A,,Clear,0,2012-11-21 05:53:00
1:02 AM,37.4,37.4,100,30.10,0.2,Calm,Calm,-,N/A,Fog,Fog,0,2012-11-21 06:02:00
1:19 AM,39.2,37.4,93,30.10,0.8,Calm,Calm,-,N/A,,Clear,0,2012-11-21 06:19:00
1:25 AM,39.2,37.4,93,30.09,0.2,Calm,Calm,-,N/A,Fog,Fog,0,2012-11-21 06:25:00
1:41 AM,37.4,35.6,93,30.10,0.5,Calm,Calm,-,N/A,Fog,Fog,0,2012-11-21 06:41:00
1:48 AM,35.6,35.6,100,30.10,1.5,Calm,Calm,-,N/A,,Scattered Clouds,0,2012-11-21 06:48:00
1:53 AM,37.0,35.1,93,30.10,6.0,Calm,Calm,-,N/A,,Scattered Clouds,0,2012-11-21 06:53:00
2:05 AM,39.2,37.4,93,30.09,1.5,Calm,Calm,-,N/A,,Partly Cloudy,0,2012-11-21 07:05:00
2:08 AM,39.2,37.4,93,30.09,0.8,Calm,Calm,-,N/A,,Mist,0,2012-11-21 07:08:00
2:23 AM,39.2,37.4,93,30.10,1.2,Calm,Calm,-,N/A,,Partly Cloudy,0,2012-11-21 07:23:00
2:36 AM,39.2,37.4,93,30.10,3.0,Calm,Calm,-,N/A,,Clear,0,2012-11-21 07:36:00
2:53 AM,39.9,37.9,93,30.09,6.0,Calm,Calm,-,N/A,,Clear,0,2012-11-21 07:53:00
3:04 AM,41.0,39.2,93,30.09,1.8,Calm,Calm,-,N/A,,Clear,0,2012-11-21 08:04:00
3:20 AM,39.2,37.4,93,30.09,3.0,Calm,Calm,-,N/A,,Clear,0,2012-11-21 08:20:00
3:53 AM,39.9,37.9,93,30.09,7.0,Calm,Calm,-,N/A,,Clear,0,2012-11-21 08:53:00
4:53 AM,37.9,36.0,93,30.10,8.0,North,3.5,-,N/A,,Clear,350,2012-11-21 09:53:00
5:53 AM,39.0,37.0,93,30.12,7.0,North,5.8,-,N/A,,Clear,350,2012-11-21 10:53:00
6:53 AM,39.9,37.9,93,30.13,7.0,North,5.8,-,N/A,,Clear,350,2012-11-21 11:53:00
7:53 AM,43.0,39.9,89,30.14,6.0,North,8.1,-,N/A,,Clear,360,2012-11-21 12:53:00
8:53 AM,46.9,41.0,80,30.15,9.0,NNE,10.4,-,N/A,,Clear,20,2012-11-21 13:53:00
9:53 AM,51.1,39.0,63,30.16,10.0,North,11.5,-,N/A,,Clear,10,2012-11-21 14:53:00
10:53 AM,55.0,36.0,49,30.16,10.0,NE,12.7,-,N/A,,Clear,40,2012-11-21 15:53:00
11:53 AM,57.0,34.0,42,30.13,10.0,North,10.4,-,N/A,,Clear,10,2012-11-21 16:53:00
12:53 PM,57.9,33.1,39,30.12,10.0,NNE,13.8,-,N/A,,Clear,20,2012-11-21 17:53:00
1:53 PM,60.1,33.1,36,30.11,10.0,North,10.4,-,N/A,,Clear,10,2012-11-21 18:53:00
2:53 PM,60.1,30.9,33,30.10,10.0,North,11.5,-,N/A,,Clear,360,2012-11-21 19:53:00
3:53 PM,57.9,32.0,37,30.11,10.0,North,10.4,-,N/A,,Clear,10,2012-11-21 20:53:00
4:53 PM,53.1,30.9,43,30.12,10.0,North,8.1,-,N/A,,Clear,360,2012-11-21 21:53:00
5:53 PM,46.0,32.0,58,30.14,10.0,NNE,3.5,-,N/A,,Clear,20,2012-11-21 22:53:00
6:53 PM,41.0,33.1,73,30.15,10.0,Calm,Calm,-,N/A,,Clear,0,2012-11-21 23:53:00
7:53 PM,42.1,32.0,67,30.17,10.0,NNE,4.6,-,N/A,,Clear,20,2012-11-22 00:53:00
8:53 PM,41.0,30.0,65,30.17,10.0,NNE,4.6,-,N/A,,Clear,30,2012-11-22 01:53:00
9:53 PM,37.9,30.0,73,30.18,10.0,North,4.6,-,N/A,,Clear,360,2012-11-22 02:53:00
10:53 PM,41.0,30.9,67,30.18,10.0,NNE,4.6,-,N/A,,Clear,30,2012-11-22 03:53:00
11:53 PM,37.9,30.0,73,30.17,10.0,NNE,5.8,-,N/A,,Clear,20,2012-11-22 04:53:00